[[{"header":{"parameterUnit":"m.s-1","parameterCategory":1,"la1":30.2991,"la2":30.254,"lo1":-89.0895,"lo2":-89.0444,"dy":0.0017,"dx":0.0017,"nx":28,"ny":28,"refTime":"2023-08-22T09:00:00:Z","depth":0,"parameterNumber":2,"parameterNumberName":"U-component_of_WINDS"},"data":[0,0,0,0,0,0,0,0,0,0,0,0,0,0,0,0,0,0,0,0,0,0,0,0,0,0,0,0,0,0,0,0,0,0,0,0,0,0,0,0,0,0,0,0,0,0,0,0,0,0,0,0,0,0,0,0,0,0,0.8552,0.8553,0,0.863,0.8631,0.8632,0.8659,0.8659,0.8659,0.8658,0.8747,0.875,0.8753,0,0,0,0,0,0,0,0,0,0,0,0,0,0.8436,0.8438,0.8552,0.8553,0.8554,0.863,0.8631,0.8632,0.8659,0.8659,0.8659,0.8658,0.8747,0.875,0.8753,0,0,0,0,0,0,0,0,0,0,0,0,0,0.8497,0.8438,0.8552,0.8576,0.8579,0.863,0.8631,0.8632,0.8659,0.8659,0.8658,0.8658,0.8745,0.8749,0.8753,0.8787,0,0,0.8766,0.8767,0,0,0,0,0,0,0,0,0.8494,0.8502,0.8572,0.8575,0.8578,0.8634,0.8623,0.8685,0.866,0.8629,0.8658,0.8658,0.8711,0.8718,0.8734,0.8792,0.8795,0.8766,0.8768,0.877,0.8771,0,0,0,0,0,0,0,0.849,0.8499,0.8583,0.8573,0.8577,0.8587,0.8595,0.8635,0.8672,0.8632,0.8634,0.8642,0.8713,0.873,0.8736,0.8797,0.8766,0.8769,0.8772,0.8773,0.8889,0.8889,0,0,0,0,0,0,0.848,0.8495,0.8581,0.8585,0.8534,0.8589,0.8598,0.8617,0.8672,0.8679,0.8643,0.8643,0.8723,0.8731,0.8739,0.8783,0.877,0.8774,0.8776,0.8888,0.8889,0.889,0,0,0,0,0,0,0.8477,0.8487,0.8578,0.8541,0.8553,0.8591,0.8612,0.8619,0.8636,0.868,0.8687,0.8653,0.8723,0.8733,0.8775,0.8786,0.8776,0.8779,0.8887,0.8888,0.8889,0.887,0,0,0,0,0,0,0.8474,0.8486,0.8497,0.8541,0.8555,0.8609,0.8613,0.8621,0.8641,0.8643,0.8691,0.8699,0.8723,0.8769,0.8779,0.8792,0.8782,0.8887,0.8888,0.8889,0.887,0.8871,0.8871,0,0,0,0,0,0.847,0.8491,0.8498,0.8508,0.8569,0.8609,0.8618,0.8643,0.8642,0.8655,0.8684,0.8697,0.8784,0.8773,0.8784,0.8799,0.8886,0.8887,0.8889,0.887,0.8871,0.8871,0,0,0,0,0,0,0.845,0.8497,0.8505,0.854,0.857,0.8614,0.8631,0.8643,0.8676,0.8677,0.871,0.8721,0.876,0.8784,0.8771,0.8836,0.8836,0.884,0.8818,0.8819,0.8819,0.8812,0.8786,0,0,0,0,0,0.845,0.8476,0.8516,0.8544,0.8558,0.8592,0.861,0.8627,0.8661,0.8675,0.8706,0.8741,0.8777,0.8799,0.8834,0.8875,0.8886,0.889,0.8891,0.8891,0.8894,0.8918,0.8921,0.8895,0.8895,0.8895,0,0,0.845,0.8478,0.8493,0.854,0.8566,0.8595,0.8602,0.8633,0.8655,0.8681,0.872,0.8745,0.8787,0.8828,0.8848,0.8849,0.8904,0.8893,0.8893,0.8896,0.892,0.8922,0.8925,0.8896,0.8895,0.8895,0,0,0.8464,0.8488,0.8513,0.8537,0.8575,0.8597,0.8603,0.8645,0.8662,0.8702,0.8721,0.8751,0.8811,0.8839,0.8862,0.8888,0.8903,0.8899,0.8901,0.8925,0.8927,0.8929,0.8939,0.8942,0.8902,0.8902,0.8902,0,0.8459,0.8501,0.8525,0.8553,0.8575,0.8596,0.8623,0.8648,0.8696,0.8711,0.8712,0.8787,0.8817,0.8865,0.8871,0.8889,0.8899,0.8893,0.8924,0.8926,0.8929,0.8938,0.8942,0.8902,0.8902,0.8902,0.8902,0,0.8494,0.8523,0.8539,0.8581,0.8605,0.8633,0.8664,0.8685,0.8701,0.8724,0.8766,0.8803,0.8845,0.8859,0.8875,0.891,0.891,0.8917,0.8918,0.893,0.894,0.8944,0.8901,0.8901,0.8901,0.8901,0,0,0.8497,0.8552,0.8558,0.8577,0.8621,0.8645,0.8676,0.8714,0.8732,0.8766,0.8793,0.8844,0.885,0.8876,0.8897,0.8917,0.8937,0.8922,0.8924,0.8924,0.8979,0.8972,0.8976,0.8947,0.8948,0.8948,0.8975,0,0.8517,0.8567,0.859,0.8633,0.866,0.8682,0.8709,0.874,0.8764,0.8793,0.8821,0.8856,0.8862,0.8877,0.8899,0.8929,0.8948,0.8928,0.8975,0.8977,0.8963,0.8981,0.8974,0.8998,0.8979,0.898,0.898,0,0.8545,0.8575,0.8619,0.8659,0.8672,0.8695,0.8732,0.876,0.8797,0.8813,0.8841,0.8861,0.8898,0.8897,0.8949,0.8934,0.8956,0.8974,0.8976,0.8981,0.8978,0.8986,0.9006,0.9009,0.8987,0.8986,0.8986,0,0.8543,0.8595,0.8627,0.8644,0.8691,0.8707,0.8729,0.8765,0.8787,0.8822,0.8837,0.8877,0.8899,0.8931,0.8963,0.8959,0.9012,0.9014,0.9028,0.9027,0.9038,0.9036,0.906,0.9052,0.9052,0.9052,0.9052,0,0.8562,0.8588,0.8626,0.8646,0.8677,0.8705,0.8736,0.876,0.8792,0.882,0.8843,0.8869,0.8909,0.8942,0.8967,0.9007,0.9017,0.9033,0.9039,0.903,0.9028,0.9044,0.9043,0.9053,0.9053,0.9053,0.9053,0,0.8563,0.859,0.8627,0.8669,0.868,0.8701,0.8738,0.8761,0.8785,0.882,0.883,0.887,0.8909,0.8944,0.8997,0.9014,0.9055,0.9063,0.9041,0.9044,0.9057,0.9055,0.9091,0.9098,0.9085,0.9086,0.9086,0,0.8573,0.8593,0.8636,0.8654,0.8674,0.8704,0.8726,0.8756,0.8778,0.8823,0.884,0.8881,0.8914,0.8977,0.9013,0.9054,0.9064,0.9074,0.907,0.9061,0.9064,0.9062,0.9065,0.9073,0.9073,0.9073,0.9073,0,0.8587,0.8599,0.8628,0.8662,0.8686,0.8715,0.8746,0.876,0.8797,0.8822,0.886,0.8886,0.8939,0.898,0.9025,0.9052,0.9069,0.9074,0.908,0.907,0.9056,0.9064,0.904,0.9073,0.9073,0.9073,0.9073,0.9073,0.8593,0.8612,0.8644,0.8676,0.8701,0.8729,0.8751,0.8778,0.8809,0.8852,0.887,0.8909,0.8949,0.9011,0.9037,0.9072,0.9075,0.9083,0.9085,0.9086,0.9084,0.9051,0.908,0.908,0.9081,0.9081,0.9081,0,0.8608,0.863,0.8659,0.8698,0.8724,0.8736,0.877,0.8792,0.8825,0.8858,0.889,0.8936,0.8976,0.9015,0.9058,0.9078,0.9087,0.9088,0.9087,0.9093,0.9079,0.907,0.908,0.908,0.908,0.908,0.908,0.908,0.8619,0.8651,0.8667,0.8713,0.8737,0.8772,0.8791,0.8818,0.8845,0.8893,0.8924,0.8948,0.8986,0.9031,0.907,0.9081,0.9096,0.9094,0.9108,0.9094,0.9094,0.9093,0.9084,0.9097,0.9097,0.9118,0.9118,0.9119]},{"header":{"parameterUnit":"m.s-1","parameterCategory":1,"la1":30.2991,"la2":30.254,"lo1":-89.0895,"lo2":-89.0444,"dy":0.0017,"dx":0.0017,"nx":28,"ny":28,"refTime":"2023-08-22T09:00:00:Z","depth":0,"parameterNumber":3,"parameterNumberName":"V-component_of_WINDS"},"data":[0,0,0,0,0,0,0,0,0,0,0,0,0,0,0,0,0,0,0,0,0,0,0,0,0,0,0,0,0,0,0,0,0,0,0,0,0,0,0,0,0,0,0,0,0,0,0,0,0,0,0,0,0,0,0,0,0,0,0.9034,0.9035,0,0.9104,0.9105,0.9106,0.9093,0.9092,0.909,0.9089,0.9156,0.9159,0.9162,0,0,0,0,0,0,0,0,0,0,0,0,0,0.8884,0.8887,0.9034,0.9035,0.9036,0.9104,0.9105,0.9106,0.9093,0.9092,0.909,0.9089,0.9155,0.9159,0.9163,0,0,0,0,0,0,0,0,0,0,0,0,0,0.8951,0.8888,0.9034,0.9038,0.9039,0.9104,0.9105,0.9106,0.9093,0.9092,0.909,0.9088,0.9154,0.9159,0.9163,0.9227,0,0,0.9176,0.9178,0,0,0,0,0,0,0,0,0.8948,0.8957,0.9036,0.9037,0.9039,0.9088,0.9077,0.9147,0.9094,0.9072,0.9089,0.9087,0.9135,0.9141,0.9158,0.9231,0.9233,0.9177,0.918,0.9181,0.9183,0,0,0,0,0,0,0,0.8943,0.8954,0.9061,0.9037,0.9039,0.9035,0.9042,0.909,0.9113,0.9074,0.9073,0.9082,0.9135,0.9154,0.9159,0.9234,0.9177,0.9181,0.9183,0.9185,0.9365,0.9367,0,0,0,0,0,0,0.8938,0.895,0.9059,0.9064,0.8988,0.9039,0.9047,0.9074,0.9113,0.9117,0.9084,0.9081,0.9147,0.9154,0.9162,0.9241,0.9181,0.9186,0.9188,0.9363,0.9366,0.9368,0,0,0,0,0,0,0.8935,0.8948,0.9056,0.9007,0.902,0.9043,0.9074,0.9076,0.9095,0.912,0.9123,0.9099,0.9146,0.9155,0.9212,0.9243,0.9188,0.9192,0.9361,0.9364,0.9367,0.94,0,0,0,0,0,0,0.893,0.8947,0.8972,0.9007,0.9023,0.9107,0.9076,0.9079,0.9103,0.9101,0.9135,0.9139,0.9145,0.9206,0.9216,0.9248,0.9195,0.9358,0.9362,0.9366,0.9396,0.9404,0.9411,0,0,0,0,0,0.8925,0.8977,0.8973,0.8987,0.9056,0.9109,0.9117,0.9125,0.9106,0.9131,0.9148,0.9138,0.9238,0.9211,0.9224,0.9257,0.9356,0.9361,0.9366,0.9393,0.9403,0.9411,0,0,0,0,0,0,0.8942,0.8982,0.8978,0.9043,0.9073,0.9106,0.9139,0.9135,0.9169,0.9165,0.9172,0.918,0.9238,0.9253,0.9222,0.9323,0.9294,0.9302,0.9311,0.932,0.9327,0.9323,0.9199,0,0,0,0,0,0.8954,0.8995,0.9027,0.9081,0.9097,0.9115,0.9138,0.9142,0.9173,0.9185,0.9205,0.9233,0.9272,0.9296,0.9333,0.9398,0.9406,0.9427,0.9435,0.944,0.9447,0.9484,0.9495,0.9384,0.9384,0.9384,0,0,0.8978,0.9005,0.903,0.9085,0.9109,0.9151,0.9126,0.917,0.9201,0.9191,0.9247,0.9262,0.9294,0.9357,0.9385,0.9371,0.9479,0.9447,0.9451,0.9455,0.949,0.9501,0.951,0.9387,0.9387,0.9386,0,0,0.9044,0.9068,0.9117,0.9142,0.9178,0.9191,0.9203,0.9237,0.9248,0.9305,0.9298,0.9334,0.9399,0.9423,0.9444,0.9521,0.9513,0.9532,0.957,0.9606,0.9615,0.9623,0.9651,0.9661,0.9538,0.9538,0.9538,0,0.9068,0.9133,0.9142,0.9189,0.9214,0.9208,0.9258,0.9281,0.9326,0.9343,0.9328,0.9411,0.9432,0.9501,0.952,0.9536,0.955,0.9528,0.9613,0.9621,0.9628,0.9656,0.9667,0.954,0.954,0.954,0.954,0,0.9162,0.9207,0.9242,0.9289,0.9318,0.9365,0.9381,0.9409,0.9411,0.9424,0.9482,0.9508,0.955,0.9566,0.9567,0.9635,0.9626,0.9612,0.9583,0.9641,0.9667,0.9678,0.9544,0.9543,0.9542,0.9542,0,0,0.924,0.9294,0.9306,0.9329,0.937,0.9404,0.9451,0.9495,0.9519,0.9551,0.9591,0.9648,0.9636,0.9659,0.9662,0.9694,0.9756,0.9676,0.9677,0.9691,0.9834,0.9845,0.9857,0.9751,0.9753,0.9754,0.9832,0,0.931,0.9397,0.9407,0.9483,0.9525,0.9521,0.9563,0.9592,0.9607,0.9643,0.9658,0.9699,0.9679,0.9693,0.9725,0.9741,0.9784,0.9736,0.9788,0.979,0.9781,0.9871,0.9883,0.9955,0.9842,0.9843,0.9845,0,0.9404,0.9442,0.9523,0.956,0.9578,0.9616,0.9658,0.9693,0.9726,0.9734,0.9762,0.9762,0.981,0.978,0.9847,0.9814,0.9835,0.9847,0.985,0.9856,0.9821,0.988,0.9977,0.9989,0.986,0.9859,0.9858,0,0.9454,0.9525,0.9583,0.9602,0.9647,0.9674,0.9693,0.9725,0.9751,0.9787,0.9804,0.9844,0.9866,0.9897,0.9908,0.9884,0.9975,0.9944,0.9983,0.9983,1.0003,1.0002,1.0106,1.0015,1.0015,1.0014,1.0014,0,0.9532,0.9582,0.9607,0.9643,0.9699,0.9711,0.9765,0.9783,0.9812,0.9851,0.9849,0.9885,0.9896,0.9934,0.9943,0.9998,1.0007,1.0015,1.0017,1.0016,1.0015,1.0031,1.0027,1.0017,1.0017,1.0016,1.0016,0,0.9598,0.9616,0.968,0.9719,0.9729,0.9769,0.9801,0.9836,0.985,0.99,0.9912,0.9934,0.9979,0.9993,1.0046,1.0051,1.0117,1.0113,1.0106,1.0107,1.0145,1.0142,1.0264,1.0282,1.0178,1.0179,1.018,0,0.9647,0.9686,0.973,0.9757,0.9778,0.9821,0.9849,0.9862,0.989,0.9933,0.9962,1.0007,1.0044,1.0116,1.0136,1.0177,1.0175,1.0215,1.0181,1.018,1.0177,1.0176,1.018,1.0222,1.0223,1.0224,1.0224,0,0.9733,0.9741,0.9782,0.9827,0.9861,0.9896,0.993,0.9952,0.9969,1.0002,1.0049,1.0078,1.0134,1.0179,1.0221,1.024,1.0235,1.0235,1.0247,1.0247,1.0242,1.0247,1.0125,1.0232,1.0231,1.0231,1.023,1.023,0.9792,0.9828,0.9865,0.9911,0.9939,0.9972,1.0007,1.0027,1.0068,1.0116,1.012,1.0172,1.0205,1.0262,1.0283,1.0323,1.0311,1.0327,1.0331,1.0335,1.0339,1.0235,1.033,1.033,1.0329,1.0329,1.0329,0,0.9879,0.9904,0.9946,0.9996,1.0032,1.0027,1.0065,1.0096,1.0142,1.0174,1.0212,1.0267,1.0311,1.0336,1.0379,1.0407,1.0406,1.0418,1.0416,1.0421,1.0346,1.0333,1.0418,1.0418,1.0418,1.0418,1.0418,1.0418,0.9929,0.9989,1.0002,1.0076,1.01,1.0152,1.0175,1.0205,1.0231,1.0294,1.0332,1.0348,1.0378,1.0424,1.0464,1.047,1.0487,1.0501,1.0505,1.0435,1.0426,1.0417,1.0405,1.0504,1.0504,1.0577,1.0578,1.0578]}]]